YN9ZAM-13 Weather Reports


time (UTC)temp
C
wind
direction
speed
KPH
gust
KPH
rain 1hr
cm
rain 24hr
cm
rain mn
cm
humidity
%
barometer
mb
20260504130137 22 44 8.0 20.9 0.00 0.00 0.00 72 1013.0
20260504120135 18 41 6.4 8.0 0.00 0.00 0.00 71 1013.0
20260504110133 21 41 6.4 8.0 0.00 0.00 0.00 71 1013.0
20260504100129 19 41 6.4 8.0 0.00 0.00 0.00 70 1012.0
20260504090127 20 48 6.4 6.4 0.00 0.00 0.00 60 1012.0
20260504081125 23 48 6.4 6.4 0.00 0.00 0.00 60 1013.0
20260504080126 19 79 4.8 4.8 0.00 0.00 0.00 57 1013.0
20260504070123 22 79 4.8 4.8 0.00 0.00 0.00 57 1013.0
20260504060121 25 79 4.8 4.8 0.00 0.00 0.00 57 1014.0
20260504050120 22 101 4.8 8.0 0.00 0.00 0.00 51 1014.0
20260504045119 22 101 4.8 8.0 0.00 0.00 0.00 51 1014.0
20260504044119 22 101 4.8 8.0 0.00 0.00 0.00 51 1014.0
20260504043119 23 101 4.8 8.0 0.00 0.00 0.00 51 1014.0
20260504042118 23 101 4.8 8.0 0.00 0.00 0.00 51 1014.0
20260504041118 24 101 4.8 8.0 0.00 0.00 0.00 51 1014.0
20260504040117 25 101 4.8 8.0 0.00 0.00 0.00 51 1014.0
20260504035117 25 101 4.8 8.0 0.00 0.00 0.00 51 1014.0
20260504034117 22 89 1.6 8.0 0.00 0.00 0.00 44 1014.0
20260504033117 23 89 1.6 8.0 0.00 0.00 0.00 44 1014.0
20260504032116 23 89 1.6 8.0 0.00 0.00 0.00 44 1013.0
20260504031116 24 89 1.6 8.0 0.00 0.00 0.00 44 1013.0
20260504030115 24 89 1.6 8.0 0.00 0.00 0.00 44 1013.0
20260504025115 25 89 1.6 8.0 0.00 0.00 0.00 44 1013.0
20260504024115 25 89 1.6 8.0 0.00 0.00 0.00 44 1013.0
20260504023115 26 89 3.2 8.0 0.00 0.00 0.00 44 1013.0
20260504022114 23 117 6.4 12.9 0.00 0.00 0.00 34 1012.0
20260504021114 24 117 6.4 12.9 0.00 0.00 0.00 34 1012.0
20260504020114 25 117 6.4 12.9 0.00 0.00 0.00 34 1012.0
20260504015113 25 117 6.4 12.9 0.00 0.00 0.00 34 1012.0
20260504014113 26 117 6.4 12.9 0.00 0.00 0.00 34 1012.0
20260504013112 26 117 6.4 12.9 0.00 0.00 0.00 34 1012.0
20260504012112 27 117 6.4 12.9 0.00 0.00 0.00 34 1011.0
20260504011112 27 117 6.4 12.9 0.00 0.00 0.00 34 1011.0
20260504010111 27 117 6.4 12.9 0.00 0.00 0.00 34 1011.0
20260504005111 28 117 6.4 12.9 0.00 0.00 0.00 34 1011.0
20260504004111 28 117 6.4 12.9 0.00 0.00 0.00 34 1011.0
20260504003110 29 117 6.4 12.9 0.00 0.00 0.00 34 1010.0
20260504002111 29 117 6.4 12.9 0.00 0.00 0.00 34 1010.0
20260504001110 30 117 6.4 12.9 0.00 0.00 0.00 34 1010.0
20260504000109 30 117 6.4 12.9 0.00 0.00 0.00 34 1010.0
20260503235109 31 117 6.4 12.9 0.00 0.00 0.00 34 1010.0
20260503234108 31 117 6.4 12.9 0.00 0.00 0.00 34 1010.0
20260503233108 31 117 6.4 12.9 0.00 0.00 0.00 34 1010.0
20260503232108 32 117 6.4 12.9 0.00 0.00 0.00 34 1008.0
20260503231108 32 117 6.4 12.9 0.00 0.00 0.00 34 1008.0
20260503230107 32 117 6.4 12.9 0.00 0.00 0.00 34 1009.0
20260503225106 33 117 6.4 12.9 0.00 0.00 0.00 34 1009.0
20260503224106 33 117 6.4 12.9 0.00 0.00 0.00 34 1009.0
20260503223106 33 117 6.4 12.9 0.00 0.00 0.00 34 1008.0
20260503222105 33 117 6.4 12.9 0.00 0.00 0.00 34 1008.0
20260503221105 30 109 6.4 12.9 0.00 0.00 0.00 30 1008.0
20260503220104 31 109 6.4 12.9 0.00 0.00 0.00 30 1008.0
20260503215104 31 109 6.4 12.9 0.00 0.00 0.00 30 1008.0
20260503214104 31 109 6.4 12.9 0.00 0.00 0.00 30 1008.0
20260503213103 32 109 6.4 12.9 0.00 0.00 0.00 30 1008.0
20260503212103 32 109 6.4 12.9 0.00 0.00 0.00 30 1008.0
20260503211102 33 109 6.4 12.9 0.00 0.00 0.00 30 1008.0
20260503205101 34 109 6.4 12.9 0.00 0.00 0.00 30 1008.0
20260503204101 35 109 6.4 12.9 0.00 0.00 0.00 30 1009.0
20260503203101 35 109 6.4 14.5 0.00 0.00 0.00 30 1009.0
20260503202100 33 111 8.0 12.9 0.00 0.00 0.00 30 1009.0
20260503201100 33 111 8.0 12.9 0.00 0.00 0.00 30 1009.0
20260503200100 33 111 8.0 14.5 0.00 0.00 0.00 30 1009.0
20260503195100 32 111 8.0 14.5 0.00 0.00 0.00 30 1009.0
20260503194059 32 111 8.0 14.5 0.00 0.00 0.00 31 1009.0
20260503193059 32 111 8.0 14.5 0.00 0.00 0.00 30 1009.0
20260503192059 31 119 11.3 14.5 0.00 0.00 0.00 34 1010.0
20260503191058 31 119 11.3 14.5 0.00 0.00 0.00 33 1010.0
20260503190058 31 119 11.3 14.5 0.00 0.00 0.00 32 1010.0
20260503185058 31 119 11.3 14.5 0.00 0.00 0.00 32 1010.0
20260503184057 31 119 11.3 14.5 0.00 0.00 0.00 34 1010.0
20260503182057 31 132 9.7 14.5 0.00 0.00 0.00 38 1011.0
20260503181056 31 132 9.7 14.5 0.00 0.00 0.00 38 1011.0
20260503180056 31 132 9.7 14.5 0.00 0.00 0.00 38 1011.0
20260503175055 31 132 9.7 14.5 0.00 0.00 0.00 38 1011.0
20260503174056 30 132 9.7 14.5 0.00 0.00 0.00 40 1012.0
20260503173055 30 132 9.7 14.5 0.00 0.00 0.00 40 1012.0
20260503172054 30 127 11.3 14.5 0.00 0.00 0.00 44 1013.0
20260503171054 30 127 11.3 14.5 0.00 0.00 0.00 44 1013.0